[[{"header":{"parameterUnit":"m.s-1","parameterCategory":1,"la1":30.2991,"la2":30.254,"lo1":-89.0895,"lo2":-89.0444,"dy":0.0017,"dx":0.0017,"nx":28,"ny":28,"refTime":"2024-07-09T21:00:00:Z","depth":0,"parameterNumber":2,"parameterNumberName":"U-component_of_WINDS"},"data":[0,0,0,0,0,0,0,0,0,0,0,0,0,0,0,0,0,0,0,0,0,0,0,0,0,0,0,0,0,0,0,0,0,0,0,0,0,0,0,0,0,0,0,0,0,0,0,0,0,0,0,0,0,0,0,0,0,0,1.7936,1.7936,0,1.8008,1.8009,1.801,1.8,1.7999,1.7998,1.7997,1.8073,1.8077,1.808,0,0,0,0,0,0,0,0,0,0,0,0,0,1.7789,1.7792,1.7935,1.7936,1.7937,1.8008,1.8009,1.801,1.8,1.7999,1.7997,1.7996,1.8072,1.8076,1.808,0,0,0,0,0,0,0,0,0,0,0,0,0,1.7856,1.7793,1.7935,1.7941,1.7942,1.8008,1.8009,1.801,1.8001,1.7999,1.7997,1.7995,1.8071,1.8076,1.808,1.8146,0,0,1.8095,1.8097,0,0,0,0,0,0,0,0,1.7853,1.7862,1.7939,1.7941,1.7942,1.7993,1.7986,1.8056,1.8001,1.7979,1.7997,1.7995,1.8048,1.8055,1.8073,1.815,1.8153,1.8095,1.8098,1.81,1.8102,0,0,0,0,0,0,0,1.7848,1.7859,1.7964,1.794,1.7942,1.794,1.7948,1.7999,1.8023,1.798,1.798,1.7988,1.8049,1.8068,1.8074,1.8154,1.8095,1.81,1.8102,1.8104,1.8287,1.8289,0,0,0,0,0,0,1.7842,1.7855,1.7962,1.7966,1.7892,1.7944,1.7953,1.7979,1.8022,1.8027,1.799,1.7988,1.8061,1.8069,1.8077,1.8155,1.81,1.8105,1.8108,1.8285,1.8288,1.829,0,0,0,0,0,0,1.7838,1.7851,1.7959,1.791,1.7924,1.7949,1.7978,1.7981,1.8,1.8029,1.8034,1.8005,1.806,1.807,1.8128,1.8158,1.8107,1.8111,1.8283,1.8286,1.8289,1.8314,0,0,0,0,0,0,1.7834,1.785,1.7875,1.7911,1.7927,1.8009,1.798,1.7984,1.8008,1.8006,1.8045,1.8049,1.8059,1.8121,1.8133,1.8164,1.8115,1.828,1.8284,1.8288,1.831,1.8317,1.8323,0,0,0,0,0,1.7829,1.788,1.7876,1.7889,1.7958,1.8011,1.802,1.8029,1.8011,1.8036,1.8054,1.8048,1.8153,1.8127,1.8141,1.8173,1.8278,1.8283,1.8287,1.8307,1.8316,1.8323,0,0,0,0,0,0,1.7848,1.7885,1.7881,1.7945,1.7975,1.8009,1.8041,1.8038,1.8074,1.807,1.8081,1.809,1.8149,1.8167,1.8138,1.8238,1.8213,1.8221,1.8224,1.8232,1.8238,1.8233,1.8119,0,0,0,0,0,1.786,1.7899,1.7929,1.7983,1.7997,1.8017,1.804,1.8044,1.8076,1.8088,1.8111,1.8142,1.8182,1.8208,1.8247,1.8313,1.8321,1.8342,1.8348,1.8353,1.8359,1.8395,1.8404,1.8305,1.8305,1.8304,0,0,1.7884,1.7909,1.7933,1.7987,1.801,1.805,1.8027,1.8071,1.8101,1.8095,1.8151,1.8169,1.8204,1.8266,1.8295,1.8283,1.8388,1.8359,1.8363,1.8366,1.84,1.8409,1.8418,1.8308,1.8307,1.8307,0,0,1.7949,1.7972,1.8019,1.8042,1.8077,1.8089,1.8101,1.8135,1.8146,1.8202,1.8198,1.8234,1.8303,1.8328,1.8349,1.8422,1.8418,1.8435,1.8468,1.8502,1.851,1.8517,1.8542,1.8551,1.8441,1.8441,1.8441,0,1.7975,1.8035,1.8043,1.8087,1.811,1.8106,1.8153,1.8175,1.8222,1.8238,1.8224,1.8309,1.8333,1.84,1.8418,1.8436,1.8448,1.843,1.8508,1.8515,1.8522,1.8546,1.8555,1.8443,1.8442,1.8442,1.8442,0,1.8065,1.8106,1.814,1.8183,1.821,1.8256,1.8271,1.8297,1.8299,1.8313,1.837,1.8398,1.8441,1.8457,1.846,1.8525,1.8516,1.8505,1.848,1.8533,1.8555,1.8565,1.8445,1.8444,1.8444,1.8443,0,0,1.8145,1.819,1.8203,1.8221,1.8259,1.8292,1.8337,1.8378,1.84,1.8432,1.847,1.8527,1.8516,1.8541,1.8547,1.8577,1.8631,1.8562,1.8563,1.8573,1.8703,1.8711,1.8721,1.8629,1.863,1.8632,1.87,0,1.8212,1.8291,1.8299,1.8369,1.8407,1.8402,1.8441,1.8469,1.8482,1.8517,1.8533,1.8573,1.8556,1.8571,1.86,1.8618,1.8657,1.8614,1.8664,1.8665,1.8654,1.8733,1.8742,1.8805,1.8709,1.871,1.8712,0,1.8302,1.8335,1.8409,1.844,1.8456,1.8491,1.8528,1.8561,1.8592,1.86,1.8627,1.8628,1.8674,1.8648,1.8711,1.8681,1.8702,1.8714,1.8717,1.8721,1.8691,1.8739,1.8825,1.8834,1.8726,1.8725,1.8724,0,1.8352,1.8415,1.8466,1.8483,1.8521,1.8545,1.8562,1.8591,1.8615,1.8648,1.8663,1.8702,1.8723,1.8753,1.8765,1.8744,1.8827,1.8802,1.8835,1.8835,1.8853,1.8851,1.8942,1.8867,1.8867,1.8867,1.8867,0,1.8426,1.8471,1.8489,1.852,1.857,1.8579,1.8628,1.8644,1.867,1.8705,1.8704,1.8737,1.875,1.8785,1.8795,1.8846,1.8856,1.8863,1.8865,1.8863,1.8862,1.8877,1.8872,1.887,1.8869,1.8868,1.8868,0,1.849,1.8504,1.8559,1.859,1.8599,1.8634,1.866,1.8691,1.8704,1.8748,1.8759,1.8779,1.882,1.8835,1.8886,1.8892,1.895,1.8949,1.894,1.894,1.8972,1.8968,1.9075,1.9089,1.9005,1.9006,1.9007,0,1.8537,1.8571,1.8605,1.8627,1.8645,1.8682,1.8705,1.8715,1.874,1.8776,1.8803,1.8843,1.8876,1.8942,1.8962,1.9,1.8999,1.9034,1.9005,1.9001,1.8999,1.8996,1.9,1.9039,1.904,1.9041,1.9041,0,1.8618,1.8622,1.8656,1.8692,1.872,1.8749,1.8777,1.8796,1.8809,1.8837,1.8879,1.8904,1.8954,1.8994,1.9033,1.9051,1.9049,1.905,1.906,1.9058,1.905,1.9054,1.8954,1.9048,1.9047,1.9047,1.9046,1.9046,1.8674,1.8704,1.8731,1.8769,1.879,1.8816,1.8846,1.8862,1.8896,1.8937,1.8941,1.8985,1.9014,1.9066,1.9085,1.912,1.9111,1.9125,1.9128,1.9132,1.9133,1.9045,1.9128,1.9127,1.9127,1.9127,1.9127,0,1.8754,1.8771,1.8806,1.8844,1.8873,1.8867,1.8897,1.8922,1.896,1.8987,1.9019,1.9066,1.9104,1.9127,1.9165,1.9189,1.9189,1.9199,1.9197,1.9201,1.914,1.9128,1.9198,1.9198,1.9198,1.9198,1.9198,1.9198,1.8799,1.8849,1.8856,1.8916,1.8933,1.8975,1.8993,1.9017,1.9038,1.9089,1.9121,1.9135,1.916,1.92,1.9235,1.924,1.9254,1.9265,1.927,1.9213,1.9205,1.9198,1.9187,1.9268,1.9268,1.9328,1.9328,1.9329]},{"header":{"parameterUnit":"m.s-1","parameterCategory":1,"la1":30.2991,"la2":30.254,"lo1":-89.0895,"lo2":-89.0444,"dy":0.0017,"dx":0.0017,"nx":28,"ny":28,"refTime":"2024-07-09T21:00:00:Z","depth":0,"parameterNumber":3,"parameterNumberName":"V-component_of_WINDS"},"data":[0,0,0,0,0,0,0,0,0,0,0,0,0,0,0,0,0,0,0,0,0,0,0,0,0,0,0,0,0,0,0,0,0,0,0,0,0,0,0,0,0,0,0,0,0,0,0,0,0,0,0,0,0,0,0,0,0,0,3.2334,3.2334,0,3.2374,3.2374,3.2375,3.236,3.236,3.2359,3.2358,3.2395,3.2397,3.2398,0,0,0,0,0,0,0,0,0,0,0,0,0,3.2241,3.2243,3.2334,3.2334,3.2335,3.2374,3.2374,3.2375,3.2361,3.236,3.2358,3.2357,3.2394,3.2396,3.2399,0,0,0,0,0,0,0,0,0,0,0,0,0,3.2281,3.2243,3.2334,3.2332,3.2333,3.2374,3.2374,3.2375,3.2361,3.2359,3.2358,3.2357,3.2393,3.2396,3.2399,3.2442,0,0,3.2407,3.2408,0,0,0,0,0,0,0,0,3.2279,3.2285,3.2332,3.2333,3.2333,3.2361,3.2355,3.2397,3.2361,3.235,3.2358,3.2356,3.2384,3.2388,3.2398,3.2444,3.2445,3.2407,3.2409,3.241,3.2411,0,0,0,0,0,0,0,3.2276,3.2283,3.2349,3.2333,3.2333,3.2329,3.2333,3.2363,3.2374,3.2351,3.235,3.2355,3.2384,3.2395,3.2399,3.2446,3.2407,3.241,3.2411,3.2412,3.253,3.2531,0,0,0,0,0,0,3.2274,3.2281,3.2348,3.2351,3.2302,3.2331,3.2336,3.2353,3.2374,3.2376,3.2356,3.2354,3.2391,3.2396,3.24,3.2453,3.241,3.2413,3.2414,3.2529,3.253,3.2532,0,0,0,0,0,0,3.2272,3.228,3.2347,3.2316,3.2324,3.2335,3.2354,3.2355,3.2366,3.2378,3.2379,3.2366,3.2391,3.2396,3.2432,3.2454,3.2414,3.2416,3.2527,3.2529,3.2531,3.2558,0,0,0,0,0,0,3.2269,3.2279,3.2297,3.2316,3.2325,3.2379,3.2355,3.2356,3.2371,3.2369,3.2387,3.2389,3.239,3.2428,3.2435,3.2457,3.2418,3.2525,3.2528,3.253,3.2555,3.2561,3.2566,0,0,0,0,0,3.2266,3.2301,3.2298,3.2306,3.2348,3.2381,3.2386,3.2387,3.2373,3.239,3.2398,3.2388,3.245,3.2432,3.2439,3.2462,3.2524,3.2527,3.253,3.2553,3.256,3.2565,0,0,0,0,0,0,3.2282,3.2304,3.23,3.2343,3.236,3.2378,3.24,3.2395,3.2415,3.2412,3.2412,3.2416,3.2454,3.2461,3.2441,3.2506,3.2485,3.249,3.2499,3.2506,3.2511,3.2508,3.2421,0,0,0,0,0,3.2291,3.2318,3.2335,3.2371,3.238,3.2389,3.2403,3.2403,3.242,3.2427,3.2437,3.2453,3.2476,3.2491,3.2513,3.2556,3.256,3.2576,3.2581,3.2585,3.2589,3.2613,3.262,3.2543,3.2543,3.2543,0,0,3.2309,3.2325,3.2341,3.2375,3.2388,3.2414,3.2395,3.2423,3.2442,3.2431,3.2466,3.2474,3.2492,3.2532,3.255,3.254,3.2612,3.2589,3.2593,3.2595,3.2617,3.2624,3.2631,3.2545,3.2545,3.2545,0,0,3.2356,3.237,3.2403,3.2417,3.2438,3.2444,3.2452,3.2471,3.2476,3.2512,3.2504,3.2526,3.2566,3.258,3.2591,3.2645,3.2637,3.2652,3.2679,3.2702,3.2708,3.2713,3.2732,3.2739,3.2656,3.2656,3.2656,0,3.2376,3.2416,3.2419,3.2449,3.2464,3.2457,3.2489,3.2502,3.2529,3.2539,3.2527,3.2578,3.2589,3.2633,3.2646,3.2656,3.2664,3.2649,3.2707,3.2712,3.2717,3.2736,3.2743,3.2658,3.2657,3.2657,3.2657,0,3.2439,3.2468,3.2491,3.2519,3.2536,3.2567,3.2574,3.2591,3.259,3.2597,3.2633,3.2647,3.2672,3.2682,3.268,3.2725,3.2718,3.2707,3.2686,3.2726,3.2744,3.275,3.266,3.2659,3.2659,3.2658,0,0,3.2496,3.2527,3.2535,3.2549,3.2572,3.2593,3.2624,3.265,3.2664,3.2683,3.2708,3.2743,3.2733,3.2747,3.2746,3.2767,3.2808,3.2753,3.2753,3.2763,3.2859,3.2867,3.2875,3.2804,3.2805,3.2806,3.2857,0,3.2545,3.26,3.2604,3.2653,3.2679,3.2673,3.27,3.2716,3.2724,3.2746,3.2753,3.2778,3.2763,3.2771,3.2791,3.2799,3.2827,3.2795,3.2826,3.2827,3.2822,3.2884,3.2893,3.2941,3.2864,3.2865,3.2866,0,3.2609,3.2632,3.2684,3.2705,3.2716,3.274,3.2764,3.2786,3.2805,3.2809,3.2825,3.2822,3.2852,3.2831,3.2872,3.285,3.2863,3.2869,3.2871,3.2873,3.2849,3.2888,3.2956,3.2963,3.2876,3.2876,3.2875,0,3.2646,3.2689,3.2726,3.2738,3.2763,3.278,3.2791,3.2808,3.2824,3.2845,3.2855,3.2879,3.2892,3.291,3.2913,3.2897,3.2955,3.2933,3.2958,3.2958,3.297,3.2969,3.3041,3.2979,3.2979,3.2979,3.2978,0,3.2699,3.2732,3.2744,3.2766,3.2802,3.2806,3.2841,3.2851,3.2867,3.2891,3.2886,3.2909,3.2912,3.2935,3.2938,3.2972,3.2977,3.2981,3.2981,3.2981,3.2981,3.2989,3.2986,3.298,3.298,3.298,3.2979,0,3.2746,3.2756,3.2796,3.2817,3.2823,3.2849,3.2866,3.2888,3.2895,3.2925,3.2932,3.2943,3.297,3.2976,3.3007,3.3008,3.3049,3.3046,3.3043,3.3043,3.3068,3.3065,3.3147,3.3158,3.3089,3.3089,3.309,0,3.278,3.2805,3.283,3.2846,3.2859,3.2885,3.2902,3.2907,3.2924,3.2948,3.2966,3.2993,3.3014,3.3057,3.3067,3.3091,3.3089,3.3116,3.3092,3.3092,3.3089,3.3088,3.309,3.312,3.3121,3.3121,3.3122,0,3.2839,3.2843,3.2868,3.2895,3.2915,3.2936,3.2956,3.2969,3.2977,3.2996,3.3024,3.3041,3.3074,3.3101,3.3125,3.3135,3.313,3.3129,3.3136,3.3137,3.3134,3.3136,3.3056,3.3127,3.3127,3.3126,3.3126,3.3126,3.288,3.2902,3.2924,3.2952,3.2968,3.2987,3.3008,3.3019,3.3043,3.3072,3.3073,3.3104,3.3122,3.3154,3.3166,3.3189,3.3181,3.3191,3.3194,3.3196,3.3198,3.3131,3.3194,3.3194,3.3193,3.3193,3.3193,0,3.2939,3.2953,3.2979,3.3008,3.303,3.3025,3.3047,3.3065,3.3093,3.3111,3.3133,3.3166,3.3192,3.3204,3.323,3.3246,3.3244,3.3253,3.3251,3.3254,3.3205,3.3196,3.3254,3.3254,3.3254,3.3254,3.3254,3.3254,3.2972,3.301,3.3016,3.3062,3.3075,3.3107,3.312,3.3137,3.3152,3.3189,3.3211,3.322,3.3236,3.3263,3.3286,3.3289,3.3298,3.3308,3.331,3.3263,3.3257,3.3251,3.3243,3.331,3.331,3.3357,3.3357,3.3358]}]]